Location: Kuffner-Sternwarte
(48.2130°N, 16.2960°E)
Time: 06:28:32
(UTC+02:00)

ACS3 Solar Sail - Pass Details

Date: 20 September 2024
Orbit: 963 x 1036 km, 97.4° (Epoch: 04 October)

Event Time Altitude Azimuth Distance (km) Brightness Sun altitude
Exits shadow 22:40:24 10° 232° (SW) 2,832 4.2 -33.9°
Maximum altitude 22:44:43 19° 275° (W) 2,263 4.1 -34.3°
Drops below altitude 10° 22:49:04 10° 318° (NW) 2,844 5.0 -34.8°
Sets 22:52:30 0° 336° (NNW) 3,796 5.9 -35.1°
